Weather History for KPIL - January, 2013

Change the Weather History Date:

Tuesday, January 1, 2013

  Actual Average Record
Temperature  
Mean Temperature 65 °F -  
Max Temperature 73 °F - - ()
Min Temperature 57 °F - - ()
Growing Degree Days 15 (Base 50)    
Moisture  
Dew Point 58 °F    
Average Humidity 85    
Maximum Humidity 94    
Minimum Humidity 72    
Precipitation  
Precipitation 0.04 in - - ()
Sea Level Pressure  
Sea Level Pressure 30.03 in    
Wind  
Wind Speed 9 mph (NNW)    
Max Wind Speed 23 mph    
Max Gust Speed 30 mph    
Visibility 8 miles    
Events Fog , Rain    
T = Trace of Precipitation, MM = Missing Value Source: NWS Daily Summary

Daily Weather History Graph

Daily Weather History Graph

Search for Another Location

Airport or City:

Trip Planner

Search our weather history database for the weather conditions in past years. The results will help you decide how hot, cold, wet, or windy it might be!

Date:

Astronomy

Jan. 01, 2013 Rise Set
Actual Time 7:16 AM CST 5:49 PM CST
Civil Twilight 6:51 AM CST 6:14 PM CST
Nautical Twilight 6:23 AM CST 6:43 PM CST
Astronomical Twilight 5:54 AM CST 7:11 PM CST
Moon 9:54 PM CST (1/1) 9:54 AM CST (1/1)
Length of Visible Light 11h 22m
Length of Day
10h 32m
Waning Gibbous, 83% of the Moon is Illuminated
Jan 1
Waning Gibbous
Jan 4
Last Quarter
Jan 11
New
Jan 18
First Quarter
Jan 26
Full

Hourly Weather History & Observations

Time (CST) Temp. Dew Point Humidity Pressure Visibility Wind Dir Wind Speed Gust Speed Precip Events Conditions
12:46 AM 73.4 °F 66.2 °F 78% 29.93 in 9.0 mi South 5.8 mph - N/A   Overcast
1:53 AM 72.0 °F 66.0 °F 81% 29.92 in 8.0 mi South 3.5 mph - N/A   Scattered Clouds
2:53 AM 70.0 °F 64.9 °F 84% 29.91 in 8.0 mi SE 3.5 mph - N/A   Scattered Clouds
3:53 AM 69.1 °F 64.9 °F 87% 29.92 in 7.0 mi ENE 3.5 mph - N/A   Overcast
4:42 AM 69.8 °F 64.4 °F 83% 29.91 in 7.0 mi Calm Calm - N/A   Mostly Cloudy
4:53 AM 69.1 °F 64.9 °F 87% 29.91 in 7.0 mi Calm Calm - N/A   Scattered Clouds
5:18 AM 69.8 °F 64.4 °F 83% 29.92 in 7.0 mi Calm Calm - N/A   Mostly Cloudy
5:28 AM 69.8 °F 64.4 °F 83% 29.92 in 7.0 mi SE 4.6 mph - 0.00 in Rain Light Rain
5:53 AM 69.1 °F 64.0 °F 84% 29.92 in 7.0 mi Calm Calm - 0.00 in   Partly Cloudy
6:53 AM 69.1 °F 64.9 °F 87% 29.94 in 7.0 mi Calm Calm - 0.00 in   Mostly Cloudy
7:53 AM 69.1 °F 64.9 °F 87% 29.96 in 6.0 mi SSW 3.5 mph - N/A   Overcast
8:53 AM 70.0 °F 66.0 °F 87% 29.99 in 7.0 mi West 8.1 mph - 0.00 in   Scattered Clouds
9:01 AM 68.0 °F 64.4 °F 88% 29.99 in 6.0 mi WNW 12.7 mph - N/A   Mostly Cloudy
9:34 AM 64.4 °F 60.8 °F 88% 30.01 in 6.0 mi WNW 15.0 mph - N/A   Mostly Cloudy
9:43 AM 62.6 °F 59.0 °F 88% 30.02 in 6.0 mi WNW 12.7 mph 20.7 mph N/A   Scattered Clouds
9:53 AM 63.0 °F 59.0 °F 87% 30.03 in 6.0 mi WNW 13.8 mph - 0.00 in Rain Light Rain
10:01 AM 62.6 °F 60.8 °F 94% 30.03 in 6.0 mi WNW 11.5 mph - 0.00 in Rain Light Rain
10:39 AM 62.6 °F 59.0 °F 88% 30.04 in 5.0 mi WNW 13.8 mph - 0.00 in   Mostly Cloudy
10:53 AM 63.0 °F 60.1 °F 90% 30.04 in 5.0 mi NW 15.0 mph - 0.00 in Rain Light Rain
12:53 PM 66.0 °F 63.0 °F 90% 30.01 in 5.0 mi NNW 17.3 mph 23.0 mph 0.00 in   Overcast
1:34 PM 62.6 °F 57.2 °F 82% 30.00 in 8.0 mi North 21.9 mph 29.9 mph 0.00 in   Overcast
1:46 PM 60.8 °F 57.2 °F 88% 30.00 in 8.0 mi North 20.7 mph 29.9 mph 0.00 in   Overcast
1:53 PM 61.0 °F 55.9 °F 83% 30.00 in 8.0 mi North 18.4 mph 29.9 mph 0.00 in   Overcast
2:40 PM 60.8 °F 55.4 °F 82% 30.02 in 9.0 mi North 19.6 mph 26.5 mph 0.00 in   Overcast
2:53 PM 61.0 °F 55.0 °F 81% 30.02 in 9.0 mi North 23.0 mph 26.5 mph 0.00 in   Overcast
3:44 PM 62.6 °F 53.6 °F 72% 30.03 in 9.0 mi North 20.7 mph 27.6 mph N/A   Overcast
3:53 PM 62.1 °F 54.0 °F 75% 30.03 in 9.0 mi North 20.7 mph 28.8 mph N/A   Overcast
4:53 PM 60.1 °F 54.0 °F 80% 30.05 in 9.0 mi North 18.4 mph 24.2 mph 0.00 in   Overcast
5:17 PM 60.8 °F 53.6 °F 77% 30.06 in 9.0 mi North 20.7 mph 25.3 mph 0.00 in   Overcast
5:53 PM 59.0 °F 54.0 °F 83% 30.06 in 10.0 mi North 16.1 mph - 0.00 in Rain Light Rain
6:03 PM 59.0 °F 55.4 °F 88% 30.07 in 10.0 mi North 13.8 mph - 0.00 in Rain Light Rain
6:31 PM 59.0 °F 55.4 °F 88% 30.09 in 10.0 mi North 13.8 mph - 0.01 in Rain Light Rain
6:48 PM 59.0 °F 55.4 °F 88% 30.08 in 9.0 mi North 13.8 mph - 0.01 in Rain Light Rain
6:53 PM 59.0 °F 55.0 °F 87% 30.09 in 9.0 mi North 15.0 mph - 0.01 in Rain Light Rain
7:53 PM 57.9 °F 54.0 °F 87% 30.12 in 9.0 mi NNW 15.0 mph - 0.02 in Rain Light Rain
8:00 PM 57.2 °F 53.6 °F 88% 30.13 in 0.5 mi NNW 12.7 mph - 0.00 in Fog , Rain Light Rain
8:10 PM 57.2 °F 53.6 °F 88% 30.13 in 1.8 mi NNW 10.4 mph - 0.00 in Rain Light Rain
8:13 PM 57.2 °F 53.6 °F 88% 30.13 in 7.0 mi NNW 10.4 mph - 0.00 in Rain Light Rain
8:49 PM 57.2 °F 53.6 °F 88% 30.13 in 10.0 mi North 9.2 mph - 0.01 in   Overcast
8:53 PM 57.0 °F 53.1 °F 87% 30.13 in 10.0 mi NNW 9.2 mph - 0.01 in   Overcast
9:30 PM 57.2 °F 53.6 °F 88% 30.15 in 10.0 mi NW 9.2 mph - N/A   Overcast
9:53 PM 57.0 °F 53.1 °F 87% 30.14 in 10.0 mi NNW 11.5 mph - N/A   Overcast
10:53 PM 57.0 °F 51.1 °F 81% 30.14 in 10.0 mi NNW 11.5 mph - 0.00 in Rain Light Rain
11:53 PM 57.0 °F 52.0 °F 83% 30.12 in 9.0 mi NNW 11.5 mph - 0.00 in   Overcast